GFSNGP_prec_radar_198.txt.gz
Reflectivity
-20 -20 -20 -20 -20 -20 -20 -19 -9 -20 -20 -20 -20 -20 -20 -20 -20 -20 -20 -20 -20 -20 -20 -20 -20 -20 -20 -20 -20 -20 -10 20 9 30 14 -20 -20 -20 -20 -20 28 35 9 8
-20 -20 -20 -20 -20 -20 -20 -20 -20 -20 -20 -20 -20 -20 -20 -20 -20 -20 -20 -20 -20 -20 -20 -20 -20 -20 -20 -20 -20 -20 -20 7 -5 -20 8 16 8 -20 -20 -20 -20 -4 1 12
-20 -20 -20 -20 -20 -20 -20 -20 -20 -20 -20 -20 -20 -20 -20 -20 -16 -20 -15 -20 -20 -20 -20 -20 -20 -20 -20 -20 -20 -20 -20 -20 -20 1 18 -14 -4 -19 -9 -19 -20 -19 6 34
-12 6 3 -20 -20 -20 -20 -20 -20 -20 -20 -20 -20 -20 -20 -19 11 -20 -20 -20 -20 -20 -20 -20 -20 -20 -20 -20 -20 -20 -20 -20 -20 -20 -20 -5 24 20 38 24 -16 -14 -10 17
11 -7 -20 -20 -20 -20 -19 -20 -20 -20 -20 -20 -20 -20 -20 -20 -20 -20 -20 -20 -20 -20 -20 -20 -20 -20 -20 -20 -20 -20 -20 -20 -20 -14 -17 4 -16 -9 -5 36 13 12 -12 -20
8 8 0 -20 -20 -20 -19 -19 -20 -20 6 -18 -10 -20 -20 -20 -20 -20 -20 -20 -20 -20 -20 -20 -20 -20 -20 -20 -20 -20 -20 -20 -20 -20 -20 16 -17 -7 -16 23 31 14 -4 -16
-9 14 10 -20 -20 -20 -7 -20 -20 8 -13 9 18 -6 -11 -20 -20 -20 -20 -20 -20 -20 -20 -20 -20 -20 -20 -4 -20 -20 -20 -20 -20 -20 -20 -20 -20 4 -7 29 19 3 -10 -3
8 20 7 -20 -20 -20 -20 -20 8 18 24 2 -12 10 2 8 -20 -20 -20 -20 -20 -20 -20 -20 -20 -20 -20 -20 -20 -20 -20 -20 -20 -20 -9 2 -20 -13 8 18 1 7 -18 -20
1 -19 -10 -14 17 -20 -20 -20 9 18 33 29 12 -5 -20 -20 -20 -20 -20 -20 -20 -20 -20 -20 -20 -10 -20 -20 -20 -20 -20 -20 -20 -1 8 11 -9 -3 12 11 9 -20 -20 -20
-13 -1 12 -20 -20 -19 -20 -20 -10 16 8 27 24 -10 -20 -20 -20 -20 -20 -20 -20 -20 -20 -20 -13 -15 -12 -20 -20 -20 -20 -20 -20 -12 -0 -4 -20 -7 8 -11 -20 -20 -20 -20
-20 -20 -20 -20 11 6 -20 -20 -20 17 -7 -20 -4 -7 -20 -20 -20 -20 -20 -20 -20 -20 -20 -20 -13 39 27 -10 -20 -20 -20 -20 -20 -18 -20 -20 -20 -6 -5 -20 -20 -20 -20 -20
-20 -20 -20 -20 -20 -20 -20 -20 -20 -20 -10 -10 -3 -20 -20 -20 -20 -20 -20 -20 -20 -20 -20 -20 -20 -19 21 18 -20 -20 -20 -20 -15 -12 -20 -20 -6 -3 8 -9 5 -6 -18 -20
-20 -20 -20 -20 -20 -20 -20 -20 -20 -20 -20 -20 -20 -20 -20 -20 -20 -20 -20 -20 -20 -20 -20 -20 -20 -20 -19 6 0 -20 -20 -20 -9 10 -20 -20 -20 -20 -18 5 18 12 -5 -14
-20 -20 -20 -20 -20 -20 -20 -20 -20 -20 -20 -20 -20 -20 -20 -20 -20 -20 -20 -20 -20 -20 -20 -20 -20 -20 -20 -20 -20 0 -13 -19 -18 -2 0 -6 -6 -13 1 -1 -17 -20 6 5
-20 -20 -20 -20 -20 -20 -20 -20 -20 -12 -3 -3 -20 -20 -20 -20 -20 -20 -20 -20 -20 -20 -20 -20 -20 -20 -20 -20 -20 -20 -15 -9 -17 7 21 18 21 13 1 -3 2 -17 -18 -2
-20 -20 -20 -20 -20 -20 -20 -0 15 17 10 -1 -20 -20 -20 -20 -20 -20 -12 -20 -20 -20 -20 -20 -20 -20 -19 -15 -8 -3 -13 14 15 -0 -6 4 13 -12 -15 -15 -3 -15 -0 -14
31 9 2 21 28 1 -17 -20 -20 -20 -12 -7 -20 -20 6 15 17 17 -19 -20 -20 -20 -20 -20 -20 -20 -7 11 8 13 18 7 13 -18 -5 -11 7 2 -13 10 12 10 10 10
-10 -13 -20 -19 -20 -17 -3 -15 -13 -10 -17 -19 -2 -20 -20 -19 -20 -20 -20 -8 -13 -20 -20 -20 -20 -10 -14 -17 -10 6 7 7 -20 -20 -18 -16 -18 -17 -10 6 8 10 11 13
-20 -20 -20 -20 4 -14 -20 -7 6 -19 -13 -19 -20 -19 -13 -4 3 11 19 22 -16 -20 -20 -20 5 2 -19 -4 11 -19 -2 -11 -20 -20 -20 -18 -10 1 3 6 5 5 4 -6
-20 -20 -20 -20 -20 -20 -20 -20 -20 -20 -20 -18 -12 12 -3 7 -6 12 14 -11 -20 -20 -20 -20 -20 -20 -20 -4 7 -20 -20 -20 -20 -20 -20 -13 -7 -8 -9 -17 -19 -20 -20 -20
-20 -20 -20 -20 -20 -20 -20 -20 -20 -20 -20 -20 7 10 11 14 12 13 12 1 -12 -19 -20 -20 -20 -20 -20 -10 -13 -20 -20 -20 -20 -20 -20 -20 -20 -20 -20 -20 -20 -20 -20 -20
-20 -20 -20 -20 -20 -20 -20 -20 -20 -20 -20 -20 -20 -12 2 6 7 7 -8 -20 -8 -14 -20 -20 -20 -16 -20 -20 -20 -20 -20 -20 -20 -20 -20 -20 -20 -20 -20 -20 -20 -20 -20 -20
-20 -20 -20 -20 -20 -20 -20 -20 -20 -20 -20 -20 -20 -20 -20 -20 -17 -16 -16 7 4 -12 -20 -20 -20 -20 -20 -20 -20 -20 -20 -20 -20 -20 -20 -20 -20 -20 -20 -20 -20 -20 -20 -20
-20 -20 -20 -20 -20 -20 -20 -20 -20 -20 -20 -20 -20 -20 -20 -20 -20 -20 -20 -9 6 2 -19 -20 -20 -20 -20 -20 -20 -20 -20 -20 -20 -20 -20 -20 -20 -20 -20 -20 -20 -20 -20 -20
-20 -20 -20 -17 -20 -20 -20 -20 -20 -20 -20 -20 -18 2 7 8 -2 -19 -8 5 -11 -20 -20 -20 -20 -20 -20 -20 -20 -20 -20 -20 -20 -20 -20 -20 -20 -20 -20 -20 -20 -20 -20 -20
-20 -20 -20 -20 -20 -20 -20 -20 -20 -19 -14 1 4 1 4 7 7 0 -14 -8 -20 -20 -20 -20 -20 -20 -20 -20 -20 -20 -20 -20 -20 -20 -20 -20 -20 -20 -20 -20 -20 -20 -20 -20
-20 -2 -20 -20 -20 -17 -15 -17 -19 -20 -6 2 1 -0 1 4 6 7 4 -11 -20 -20 -20 -20 -20 -20 -20 -20 -20 -20 -20 -20 -20 -20 -20 -20 -20 -20 -20 -20 -20 -20 -20 -20

GFSNGP_prec_radar_204.txt.gz
Reflectivity
-20 -20 -18 -13 -15 8 12 -15 17 10 -20 -20 -20 -20 -20 -20 -20 -20 -20 -20 -20 -20 -20 -20 -20 -20 -20 -20 -20 -20 -20 -20 -17 3 -8 10 9 15 -17 -10 -17 -20 -20 -20
-0 -20 -20 -20 -20 -19 -20 -13 8 3 -18 -20 -20 -20 -20 -20 -20 -20 -20 -20 -20 -20 -20 -20 -3 -20 -20 -20 -20 -20 -20 -20 -20 -20 -8 -18 -2 21 -20 -20 -20 -13 -9 -14
9 -20 -20 -20 -20 -20 -20 -20 -9 1 -17 -20 -20 -20 -20 -20 -20 -20 -20 -20 -20 -20 -20 -20 -20 -20 -20 -20 -20 -20 -20 -20 -20 -20 -20 -1 -16 -2 -20 -20 -20 -20 27 26
11 -6 4 -20 -20 -20 -20 -20 -6 -7 -15 -20 -20 -20 -20 -20 -20 -20 -17 16 -20 -20 -20 -20 -20 -20 -20 -20 -20 -20 -20 -20 -20 -20 -20 -20 -20 -20 -17 -20 -20 -16 15 -6
10 3 -20 -20 -20 -20 -20 -20 -20 -20 -20 -20 -20 -20 -20 -20 -4 -20 -20 -20 -20 -20 -20 -20 -20 -20 -20 -20 -20 -20 -20 -20 -20 -20 -20 -20 -20 -20 -20 -20 -20 -8 -17 12
12 9 -13 -20 -20 -20 -20 -20 -20 -20 -20 -20 -20 -19 -20 -14 -19 -18 -0 -20 -20 -20 -20 -20 -20 -20 -20 -20 -20 -20 -20 -20 -20 -20 -20 -18 -12 -20 -20 -11 11 32 36 35
7 16 -5 -20 -20 -20 -13 -20 -20 -20 -20 -20 -20 -9 -12 -15 -20 -3 -14 -20 -14 -20 -20 -20 -20 -20 -20 6 5 -8 -20 -20 -20 -20 -20 -4 -1 -1 13 34 38 29 28 26
11 12 10 -20 -20 -20 -20 -20 -20 -20 -20 -20 -20 -14 -17 -3 -20 26 37 27 -10 -20 -20 -20 -20 -20 -20 9 9 -18 10 23 -7 0 -7 -18 -20 -20 -20 12 33 6 25 26
-20 -20 -20 -20 -20 -20 -20 -20 -20 -20 -20 -20 -20 -20 -20 -20 -20 34 -12 -4 -20 -20 -20 -20 -20 -20 -20 -17 -20 -5 2 11 21 -20 -20 -20 -20 -3 -20 -20 -8 -7 3 -3
-20 -20 -20 -20 -20 -20 -20 -20 -20 -20 -20 -20 -20 -20 -20 -20 -20 29 23 -1 -11 -20 -20 -20 -20 -20 -20 -20 -20 22 18 12 35 -14 -18 -14 -10 -2 -20 -19 -7 -3 -1 -1
-20 -20 -20 -20 -20 -20 -20 -20 -20 -20 -20 -20 -20 -20 -20 -20 -20 20 20 8 -20 -20 -20 -20 -20 -20 -20 -20 -20 -19 25 18 28 32 6 -8 -20 -20 -20 -14 -19 -19 -11 -7
-20 -20 -20 -20 -20 -20 -20 -20 -20 -20 -20 -20 -6 -20 -20 -20 -20 -18 20 -10 -19 -20 -20 -20 -20 -20 -20 -20 -20 -20 -20 -4 27 13 -3 -4 -12 -15 -19 -13 -5 6 0 -20
-20 -20 -20 -20 -20 -20 -20 -20 -20 -20 -20 -20 -20 -20 -12 18 -20 -20 -14 9 -6 -20 -20 -20 -20 -20 -20 -20 -20 -20 -20 -16 -20 0 8 -6 -13 -18 -20 2 6 -14 -12 -15
-20 -20 -20 -20 -20 -20 -20 -20 -20 -20 -20 3 10 -11 5 1 -20 -20 -20 -20 -20 -20 -20 -20 -20 -20 -6 -20 -17 7 6 -1 -19 -20 10 -2 3 16 -3 -5 -19 -20 -14 -11
-20 -20 -13 6 -8 -7 -20 -12 4 5 7 -1 2 8 1 -10 -8 -20 -20 -20 -20 -20 -20 -20 -20 -20 -20 -20 -20 -20 -20 -20 -16 -20 -15 7 3 23 20 7 3 -1 14 8
-19 -7 -20 -18 -9 -6 -9 -9 -7 -3 -17 -19 -2 3 -16 -20 -20 -1 -20 -20 -20 -20 -14 -18 -20 -20 -20 -20 -20 -19 -14 2 -14 -20 -17 -2 12 12 24 23 19 16 1 1
-4 -20 -20 -20 -19 -13 -19 -19 -1 -4 -5 -2 -16 -5 -1 -20 -20 -20 -18 -20 -20 -20 -8 16 5 -20 -20 -19 -17 -3 -4 -11 8 3 -13 -10 7 17 15 21 22 26 20 21
12 -20 -20 -11 -20 -20 -20 1 -20 0 -3 -5 -20 -20 -20 -20 0 -9 -20 -14 -11 -20 -20 -15 -16 -9 -20 -15 -15 -4 0 -2 -3 0 -10 -2 -7 14 17 15 19 23 25 20
11 -2 -20 -20 -11 -3 -8 -20 -20 -16 -20 -14 -4 -20 -17 -6 3 -17 -12 -9 -10 -10 1 1 -20 -5 -3 -20 -20 -7 1 -0 -5 -20 -12 -6 -4 5 5 14 19 24 22 24
17 6 7 -20 -20 -20 -17 -20 -20 -20 -20 -17 -20 1 -14 -17 1 -2 4 3 11 1 5 -17 -20 -20 -20 -9 -0 2 0 0 1 1 5 -20 -1 4 5 6 22 18 20 24
-19 -20 -8 1 -1 -20 -20 -4 -20 -20 -20 -20 -3 -20 -20 -19 -20 -18 -4 -7 -2 1 -8 -16 -6 -20 -20 -20 -4 -4 -18 0 -20 -18 -2 -4 5 6 3 4 4 3 8 17
-20 -20 -5 -12 -20 -20 -2 -20 -20 -20 -20 -20 -20 -20 -20 -20 -20 -20 -12 -20 -4 -12 3 -2 -20 -20 -20 -20 -15 -3 -20 -1 -20 -20 -20 -16 -2 -12 -1 2 3 3 1 4
-19 -20 -20 -10 -5 -5 -16 -20 -20 -20 -20 -20 -20 -9 -5 -9 -5 -9 -19 -14 -20 -20 -20 -20 -20 -16 -19 -2 -7 -5 -10 -8 -10 -4 -8 -2 -2 -2 -2 -2 -3 -1 -2 -2
-8 -7 -2 -4 3 2 2 5 -20 -20 -20 -20 -5 2 5 -1 -7 -20 -20 -20 -20 -20 -20 -20 -17 -20 -20 -3 -2 -1 -1 -0 -1 1 -0 -3 0 -2 -1 -1 -2 -1 -2 -3
-20 -20 -14 5 4 -20 -13 8 -17 -20 -18 -3 -4 -11 -4 -0 -9 -7 -20 -20 -20 -20 -20 -17 -18 -20 -4 -2 -2 -3 -1 -1 0 -0 -0 -1 -2 -2 -2 -4 -3 -1 -1 -2
-13 -20 -20 -6 3 2 9 10 2 -12 -20 -3 -1 -2 -3 -12 -8 -9 -17 -20 -20 -20 -20 -6 -3 -14 -2 -9 -5 -13 -10 -9 -7 -12 -3 -3 -3 -3 -2 -3 -3 -2 -2 -2
-20 -20 -12 -20 -16 3 13 9 8 6 -5 1 -19 -1 -14 -14 -14 -11 -9 -10 -11 -14 -14 -6 -17 -20 -16 -4 -7 -9 -10 -10 -16 -5 -3 -2 -2 -3 -3 -3 -3 -2 -3 -5

GFSNGP_prec_radar_207.txt.gz
Reflectivity
-20 -20 -10 -17 -18 -20 -20 -20 -6 -20 -20 -20 -20 -20 -20 -20 -20 -20 -20 -20 -20 -20 -20 -20 -20 -20 -20 -20 -20 -20 -20 -20 -20 -1 9 7 4 -6 1 2 -5 5 -0 20
-20 -20 -20 -20 -20 -20 -4 -20 -20 -20 -20 -20 -20 -20 -20 -20 -20 -20 -20 -20 -20 -20 -20 -20 -20 -20 -20 -20 -20 -20 -20 -20 -20 -20 -20 2 -20 -20 -13 -0 4 3 -16 2
-20 -20 0 7 -20 -20 -20 -20 -20 1 -18 -20 -20 -20 -20 -20 -20 -20 -20 -1 -14 10 -1 -15 -20 -20 -20 -20 -20 -20 -20 -20 -20 -20 3 -20 -20 4 -15 0 -20 -20 -20 -20
-1 -8 2 -20 -20 -20 -20 -20 -20 -20 -20 -20 -20 -20 -20 -20 -20 8 -20 -20 -20 -20 -12 15 -19 -20 -20 -20 -20 -20 -20 -20 -20 -20 -20 -20 -20 -0 9 -4 -17 -20 -20 -20
8 5 -20 -20 -20 -20 -20 -20 -20 -20 -20 -20 -20 -20 -20 -20 -20 -20 -20 -20 8 -20 14 11 -1 -20 -20 -20 -20 -20 -20 -20 -3 -20 -20 -18 -5 5 6 19 8 -10 5 -12
15 8 -11 -19 -20 -20 -20 -20 -20 -20 -20 -20 -20 -20 -20 -20 -20 -20 -20 -18 -20 -20 14 32 3 -20 -20 -20 -20 -20 -20 -20 -20 -20 -20 -20 -20 -20 -20 16 24 24 17 10
12 15 -2 -20 0 -20 -20 -20 -20 -20 -20 -20 -20 -20 -20 -20 -20 -20 -20 -20 -20 -20 -8 34 13 -20 -20 4 -14 -20 -20 -13 -20 -20 -20 -20 -20 -10 0 -10 -0 5 19 22
14 17 14 -20 -20 -20 -20 -20 -20 -20 -20 -20 -20 -20 -20 -20 -20 -20 -20 -20 -20 13 -8 18 27 -20 -20 -11 -12 -20 -20 -20 -20 -20 -19 -16 6 2 1 24 11 24 35 36
-2 -10 -20 -20 -20 -20 -20 -20 -20 -20 -20 -20 -20 -20 -20 -20 -20 -20 -20 -20 -20 30 31 28 12 -20 -20 -18 -20 -20 -6 7 -11 -20 -4 11 -14 -8 -6 -9 -11 -1 26 5
-20 -20 -20 -20 -20 -20 -20 -20 -20 -20 -20 -20 -20 -20 -20 -20 -20 -20 -20 -20 -20 14 5 27 -17 0 -20 -20 -20 -20 -20 -8 0 -7 32 -2 -20 -20 -20 -20 -20 -13 6 -10
-20 -20 -20 -20 -20 -20 -20 -20 -20 -20 -20 -20 -20 -20 -20 -20 -20 -14 -20 -20 -20 29 26 -15 -18 -20 -20 -20 -20 -20 -20 -20 -20 -11 -2 21 -10 -8 -8 -6 -9 -5 -1 -1
-20 -20 -20 -20 -20 -20 -20 -20 -20 -20 -20 -20 -20 -20 -20 -20 -20 -20 8 -4 -20 13 18 27 -20 23 22 -20 -20 -20 -20 -20 -20 -16 15 2 20 -7 5 13 17 12 13 14
-20 -20 -20 -20 -20 -20 -20 -20 -20 -20 -20 -20 -20 -20 -20 -19 -20 -20 -20 20 -20 17 22 23 27 25 25 -20 -20 -20 -20 -20 -20 -20 -19 19 26 5 -13 1 4 9 10 11
-20 -20 -20 -20 -20 -20 -20 -20 -20 -20 -20 -19 3 10 -9 -3 -5 3 24 15 -15 22 7 15 2 -5 -18 -20 -20 3 -4 -15 -20 -16 -20 -18 1 15 5 -14 -19 -19 0 6
-20 -20 -13 -20 -20 -20 -15 2 -20 -13 -8 -20 -20 -5 2 -2 22 18 -3 -20 -20 -20 -20 -20 -20 -20 -20 -20 -20 -20 -20 -20 -20 -5 -8 -10 -1 23 21 25 16 13 13 8
-20 -8 -1 -20 -20 -20 -20 -20 -20 -20 -20 -20 -20 -20 -20 -5 1 -20 -20 -19 -2 -20 -20 -4 -20 -18 -20 -20 -20 -20 -20 -1 -15 -19 -20 -20 -20 -3 18 16 26 24 -2 -3
4 19 -0 -5 -20 -20 -20 -20 -19 -5 -9 -2 -7 -20 -13 -20 -5 -20 -20 -20 -16 8 19 8 3 7 6 16 -20 -20 -18 -18 -7 -19 -20 -20 -15 -11 1 13 12 20 20 25
1 23 5 -10 -7 -3 -6 -20 -16 -20 -2 -16 -13 -20 -13 -16 -12 -8 -4 -15 -15 -12 -6 4 25 5 5 -16 -6 -3 -3 -15 -5 -2 -8 -5 -5 -4 12 13 18 18 19 20
0 25 20 -1 -20 -1 -11 -20 -20 -9 -18 -7 -1 -4 -7 -7 -9 19 2 -9 -4 -4 -7 15 -13 3 -4 -20 -6 1 -3 0 -1 -13 -5 2 3 1 5 10 12 16 16 22
-0 8 -6 -3 -6 -18 -6 -16 -17 2 -2 -1 -20 -7 -13 -20 0 -6 4 -0 -2 2 19 25 26 0 5 -1 9 1 2 6 -10 3 6 -6 -6 -8 3 -13 0 5 6 19
2 -9 6 1 -15 -19 -20 -19 -17 -20 -20 -20 -15 3 -20 -20 -11 -17 4 1 0 0 2 10 12 12 2 3 -19 -8 -10 -7 -5 -7 -3 4 4 6 5 5 7 7 6 1
-14 -16 0 -14 -12 -8 5 -11 -19 -20 -20 -20 -20 -20 -20 -10 -8 -20 -20 -19 -16 -16 9 3 -11 -20 -20 -20 -2 5 -3 -3 1 -1 -1 -0 4 4 1 4 -1 1 2 0
-20 -20 -20 -3 -5 -14 -6 -15 -20 -20 -20 -20 -20 -20 -5 -5 -1 -4 -0 -10 -14 -18 -20 -20 -15 -20 -20 2 2 0 -0 -6 -3 -3 -3 -4 -3 -4 -4 -0 -1 -2 -0 -1
-20 -20 -20 -20 -19 -19 -20 -19 1 -18 -20 -20 -20 0 4 9 -1 -20 -20 -20 -20 -20 -20 -3 -11 -19 -20 -1 0 -1 -0 0 1 2 -3 1 1 0 -1 0 -2 -4 -0 -4
-20 -20 -20 -8 -20 -20 -20 -5 -11 -1 -20 -20 -20 -19 11 12 4 -0 -5 -17 -5 -20 -19 -10 -2 -2 -1 -2 -4 -3 -3 -2 0 -1 -1 -4 -1 -1 -2 -3 -2 1 -3 -2
-7 -20 -20 -20 -20 -19 -8 4 11 12 8 -1 1 6 -3 -4 -15 -6 -4 -4 -14 -10 -3 0 3 2 -1 -5 -1 -1 -1 -1 -2 -2 -1 -1 -2 -1 -1 -1 -2 -2 0 -1
-20 -20 -20 -20 -20 -7 2 -12 3 16 17 11 5 4 2 3 -0 -3 -2 -3 -4 -5 -5 -3 1 5 5 -3 -3 -4 -5 -5 -15 -1 -1 -0 -1 -1 -1 -1 -1 -0 -1 -2

GFSNGP_prec_radar_210.txt.gz
Reflectivity
-20 -20 -10 -20 -20 -20 -20 -20 -20 -20 -20 -20 -20 -20 -20 -20 -20 -20 -20 -20 -20 -20 -20 -20 -20 -9 -20 -20 -20 -20 -20 -20 -20 -20 -1 -15 26 -6 -20 -20 -2 -18 -12 21
-20 -20 -17 -12 -20 -20 -20 -20 -20 -20 -20 -20 -20 -20 -20 -20 -20 -20 -20 -20 -20 -20 -20 -20 -20 15 -14 -20 -20 -20 -20 -20 -20 -20 -19 2 -20 -20 7 4 17 -20 -20 3
7 -20 -3 13 -20 -20 -20 -20 -20 -20 -20 -20 -20 -20 -16 -20 -20 -20 -20 -20 -20 -20 -20 -20 -20 -3 10 -20 -20 -20 -20 -20 -20 -20 5 12 6 -14 -20 -11 10 10 -19 -11
18 0 17 -20 -20 -20 -20 -20 -20 -20 -20 -20 -12 -20 -20 -20 -20 -20 -20 -20 -20 -20 -20 -20 -20 -20 -20 -4 -20 -20 -20 -20 -20 -20 -20 -20 -6 -13 5 -18 -4 3 -14 -15
19 8 -19 -20 -20 -20 -20 -20 -20 -20 -20 -20 -20 -20 -20 -20 -20 -20 -20 -20 -20 -20 -20 -20 -20 -20 17 29 -20 -20 -20 -20 -20 -20 -20 -20 -20 -1 5 12 -2 5 2 13
24 15 2 -20 -20 -20 -20 -20 -20 -20 -20 -20 -20 -20 -20 -20 -20 -20 -20 -20 -20 -20 -20 -20 -20 -18 8 43 -15 -20 -20 -20 -20 -20 -20 -20 -20 -20 -20 6 23 14 25 19
10 17 8 -20 -16 -20 -20 -20 -20 -20 -20 -20 -20 -20 -20 -20 -20 -20 -20 -20 -12 -20 -20 -20 -20 -17 -6 28 -2 -20 -20 -20 -20 -14 -20 -20 -20 -20 -19 13 25 22 40 29
7 21 19 -20 -20 -20 -20 -20 -20 -20 -20 -20 -20 -20 -20 -20 -20 -20 -20 -20 -20 -20 -20 -20 -20 1 18 32 -3 -20 -20 -20 -20 -20 -20 -20 -20 -20 16 17 34 27 16 20
-15 -20 -20 -20 1 -18 -20 -20 -20 -20 -20 -20 -20 -20 -20 -20 -20 -20 -20 -20 -20 -20 -20 -20 -7 23 30 29 -19 -20 -20 1 -20 -20 -13 -7 -10 8 25 -3 7 -10 -15 -15
-12 -20 -20 -16 -4 3 -20 -20 -20 -20 -20 -20 -20 -20 -20 -20 -20 -20 -20 -20 -20 -20 -20 -20 -4 22 42 0 -20 -20 -20 -20 -3 -20 -2 -8 18 2 -13 -20 -12 -20 -7 -5
-20 -20 -18 1 -14 -20 -20 -20 -20 -20 -20 -20 -20 -20 -20 -20 -20 -20 -20 -19 -1 -20 10 -20 -20 28 39 -7 -20 -20 -20 -20 -20 -10 2 -20 -15 15 11 -14 -9 -5 7 18
-20 -20 -16 -20 -20 -20 -20 -20 -20 -20 -20 -20 -20 -20 -20 -20 -20 -20 -20 2 -20 -18 26 -20 -19 -16 24 17 -20 -20 -20 -20 -13 -20 -2 -4 -20 -20 -14 -6 -6 -5 7 17
-20 -20 -20 -20 -20 -20 -20 -20 -20 -20 -20 -20 -20 -20 -20 -20 -20 -20 -20 -20 -20 -20 -20 -20 -8 43 40 31 2 -20 -20 -20 -20 0 -20 -20 -20 -20 -4 11 7 -1 7 7
-20 -20 -20 -20 -20 -20 -20 -20 -20 -20 -20 -20 -19 -20 -20 -20 -20 -20 -20 -20 -20 -20 -20 14 21 13 10 -18 2 -20 -20 -20 -20 -2 12 -20 -20 -8 -11 -20 -12 -1 11 2
-20 -20 -20 -20 -20 -20 -20 -20 -20 -20 -20 -20 -20 -20 -20 -20 -20 -20 -20 4 8 -20 -20 -14 25 -12 -20 -20 -1 -20 -20 -20 -10 3 -18 -14 -20 -11 2 20 -3 -18 -17 7
-20 -20 -20 -20 -20 -20 -20 -20 -20 -20 -20 -20 -20 -20 -20 -20 -20 -20 -20 -1 -20 -20 -20 -20 -20 -20 -20 -20 -20 -20 -19 -1 3 -18 -20 -20 -20 -20 -15 10 19 15 -15 -16
-20 -20 -20 -16 -20 -20 -20 -20 -20 -20 -20 -18 -20 -14 -20 -20 -20 -20 -8 -18 -8 -8 -8 1 -16 27 34 19 -1 5 33 12 16 -11 -16 -17 -20 -20 -20 9 17 15 4 13
-20 -20 -20 -4 -20 -20 -20 -20 -20 -20 -20 -16 -10 -20 -20 -19 -6 -20 -20 -7 -10 -20 -17 -17 1 20 32 27 35 23 8 13 11 -10 -10 -19 -15 -5 10 8 16 -5 7 5
-20 -16 -4 4 3 2 -20 -20 -20 -20 -20 -11 -17 -15 -7 -20 -16 -11 -10 -20 -20 -20 -20 -20 -10 15 17 -19 -3 -10 -18 -17 -17 -11 -7 -1 2 20 15 8 12 8 -2 -15
-20 -20 -15 -20 -20 -20 -20 -20 -20 -16 -20 -20 -8 -14 -13 -20 -16 -20 -20 -17 -20 -12 -20 -20 2 21 28 22 12 -6 1 10 11 -1 12 2 4 -6 -16 7 -12 -3 -15 -4
-20 -20 -20 -20 -20 -20 -20 -20 -20 -20 -19 -18 -10 5 -1 -20 -20 -20 -18 -4 -20 -15 -8 -11 7 25 25 18 24 10 6 8 -0 -6 -20 -20 -18 -20 -20 -20 -5 -2 -8 -15
-20 -20 -20 -20 -20 -20 -20 -20 -16 -20 -20 -20 -3 8 -3 -7 -20 -20 -20 -19 -20 -20 -3 -20 -20 -8 0 18 8 5 3 2 2 -7 -20 -20 -17 -11 -16 -10 -9 -10 -20 -20
-20 -20 -20 -20 -20 -20 -20 -20 -20 -18 -9 -8 -20 1 -15 1 -15 1 -10 -20 -20 -20 -20 -18 -20 -20 -20 -4 -5 -5 -4 -5 -1 -12 -20 -20 -15 -17 -20 -17 -20 -20 -20 -20
-20 -20 -20 -20 -20 -20 -20 -20 -18 -20 -10 3 -20 -20 -20 5 2 -20 -20 -20 -20 -20 -3 2 -14 -19 -5 -4 -5 -7 -5 -4 -10 -6 -14 -20 -18 -20 -19 -20 -20 -19 -20 -20
-20 -20 -20 -20 -20 -20 -20 -20 -20 -20 -1 -20 -20 -20 -15 14 22 -2 -19 -19 -2 -20 -20 -20 -11 -17 -20 -20 -20 -20 -10 -3 -10 -18 -19 -13 -9 -18 -19 -20 -20 -10 -13 -19
-20 -20 -20 -20 -20 -20 -20 -12 2 7 -5 19 -7 -2 -1 -20 -9 -14 -4 0 1 -3 -4 -3 -5 -20 -16 -11 -6 -3 -12 -20 -20 -11 -14 -14 -18 -16 -15 -18 -20 -20 -11 -18
-20 -20 -20 -20 -20 -20 -3 5 -19 -16 -20 -6 22 4 -20 -1 -4 -13 -16 -9 -8 -5 -13 -11 -3 -12 -5 -12 -13 -4 -7 -20 -18 -20 -12 -20 -17 -17 -20 -8 -6 -17 -20 -20

GFSNGP_prec_radar_216.txt.gz
Reflectivity
-20 -20 -20 -20 -20 6 31 17 -20 -20 -20 -20 -9 17 17 5 -20 -20 -20 -20 -20 -20 -20 -20 -20 -20 -20 -20 -20 -20 -20 -20 -20 -20 -20 -20 -20 -20 17 -20 -20 -20 -20 -20
-14 -20 -19 4 -20 -20 -20 -20 8 6 -20 -20 -4 -15 -20 -20 -20 -20 -20 -20 -20 -20 -20 -20 -20 -20 -20 -20 -20 -20 -20 -20 -20 -20 -20 -20 -20 -20 13 -20 -19 -20 -20 -16
17 7 9 -5 -20 -20 -14 -18 -4 7 -16 -20 -20 -20 -20 -20 -20 -20 -20 -20 -20 -20 -20 -20 -20 -20 -20 -20 -20 -20 -20 -20 -20 -20 -20 -20 -20 -20 -6 -9 17 -20 -20 -20
23 25 23 -2 -19 -20 -20 -20 -20 -20 -20 -19 -20 -20 -20 -20 -20 -20 -20 -20 -20 -20 -20 -20 -20 -20 -20 -20 -20 -20 -20 -20 -20 -20 -7 -20 -20 -20 12 -10 -20 -20 -20 -20
24 22 21 -17 -20 -20 -3 -2 -16 -20 -8 -1 -16 -18 -20 -20 -20 -20 -20 -20 -20 -20 -20 -20 -20 -20 -20 -20 -20 -20 -20 -20 -20 -20 -20 -20 -20 -20 -20 -20 -20 -20 -20 -20
27 23 13 -20 -20 -20 2 2 8 -20 -20 -20 -20 -20 -20 -20 -20 -20 -20 -20 -20 -20 -20 -20 -20 -20 -20 -20 -20 -20 -20 -20 -20 -12 -19 -20 -20 -20 -20 -17 6 -20 -20 -20
16 15 27 -19 -20 -11 -20 -20 -20 -20 -20 -20 -20 -20 -20 -20 -20 -20 -20 -20 -20 -20 -20 -20 -20 -20 -20 -20 -20 -20 -20 -20 -16 -4 -20 -20 -20 -20 -20 -20 -20 -20 -20 -10
14 20 22 -17 -20 -20 -20 -20 -20 -20 -20 -20 -20 -20 -20 -20 -20 -20 -20 -20 -20 -20 -20 -20 -20 -20 -20 -20 -20 -20 -20 -20 -10 25 13 4 -19 -7 -20 -7 4 0 10 6
19 16 -1 -19 -20 -20 -20 -20 -20 -20 -20 -20 -20 -20 -20 -20 -20 -20 -20 -20 -20 -20 -20 -20 -20 -20 -20 -20 -20 -20 -20 -2 10 1 -17 16 2 10 -1 -13 4 14 10 9
13 1 -9 12 -16 -19 -20 -20 -20 -20 -20 -20 -20 -20 -20 -20 -20 -20 -20 -20 -20 -20 -20 -20 -20 -20 -20 -20 -20 -20 11 7 -16 7 -11 -20 -1 -12 1 3 19 -12 -20 -20
21 19 2 -3 -20 -11 -18 -20 -20 -20 -20 -20 -20 -20 -20 -20 -20 -20 -20 -20 -20 -20 -20 -20 -20 -20 -20 -20 -20 -20 9 5 1 -13 -14 -20 -19 -6 -18 15 27 5 3 -16
3 -16 -18 8 14 5 -16 -20 -20 -20 -20 -20 -20 -20 -20 -20 -20 -20 -20 -20 -20 -20 -20 -20 -20 -20 -20 -20 -20 -20 -13 0 11 -15 -20 -10 -19 3 -1 -5 2 22 14 18
-5 -16 -20 10 1 -13 -6 3 -1 -20 -20 -20 -14 -20 -20 -20 -20 -20 -20 -20 -20 -20 -20 -20 -20 -20 -20 -7 -7 16 10 13 -20 -20 -20 -20 -20 -20 -20 0 3 8 15 16
-8 -14 -4 -19 -11 -11 10 20 19 13 5 -20 -20 -20 -20 -20 -20 -20 -20 -20 -20 -20 -2 -12 -20 -20 -6 2 4 27 36 28 23 -14 -17 -20 -20 -20 -20 -20 -19 -20 -12 0
7 15 17 24 12 -0 -1 8 8 -18 -20 -20 -20 -20 -20 -20 -20 -20 -20 -20 -20 -20 -3 -16 -20 -20 -20 -20 -13 22 12 37 26 25 -9 -10 -20 -19 -18 -19 -20 -20 -20 -7
-20 4 10 -8 -11 -14 -17 1 2 -15 -20 -20 -20 -20 -20 -20 -20 -20 -20 -20 -20 -20 -15 -2 -20 -20 -20 -19 -19 -1 -0 32 28 14 -20 -20 -20 -20 -20 -20 -20 -20 -19 -20
6 11 -5 -20 -20 -20 -20 -20 -20 -20 -20 -20 -20 -20 -20 -20 -20 -20 -20 -19 -15 -20 -19 -10 -20 -20 -20 16 10 10 12 15 28 -1 -20 -20 -20 -20 -20 -20 -20 -20 -20 -7
4 -5 -20 -20 -20 -20 -20 -20 -20 -20 -20 -20 -20 -20 -20 -19 -20 -20 -20 -20 -11 -20 -20 -20 -20 -20 -20 -20 8 15 3 20 23 33 14 7 -15 -12 -20 -20 -20 -20 4 -9
-20 -20 -20 -20 -20 -20 -20 -20 -20 -20 -20 -20 -20 -20 -3 0 -20 -19 -19 -20 8 -19 -20 -20 -8 1 5 2 -14 -6 -1 -5 -1 -0 -9 3 -13 -20 -20 -20 -20 -20 -20 -19
-20 -20 -20 -20 -20 -20 -20 -20 -20 -20 -20 -20 -20 -20 -20 -4 -9 -6 -19 -20 -12 -20 -20 -16 -4 -17 0 7 1 -5 -1 -6 8 -19 -20 -20 -20 -20 -19 3 -17 -12 -4 -14
-20 -20 -20 -20 -20 -20 -20 -20 -20 -20 -20 -20 -20 -20 -20 -20 -20 -20 -20 -20 -20 -20 -18 -11 -16 10 -17 -0 -4 -19 9 4 -20 -20 -20 -20 -13 -20 -20 -20 -20 -19 7 -10
-20 -20 -20 -20 -20 -20 -20 -20 -20 -20 -20 -20 -20 -20 -20 -20 -20 -20 -20 -20 -20 -20 -12 -20 -5 3 5 7 -20 -20 -20 -20 -20 -20 -20 -20 -20 -20 -20 -20 -20 -20 -20 -20
-20 -20 -20 -20 -20 -20 -20 -20 -20 -20 -20 -20 -20 -20 -20 -20 -20 -11 -19 -20 -20 -20 -20 -20 -20 -20 -18 -20 -20 -20 -20 -20 -20 -20 -20 -20 -20 -20 -20 -20 -20 -20 -20 -20
-20 -20 -20 -20 -20 -20 -20 -20 -20 -20 -20 -20 -20 -20 -20 -20 -20 -20 -20 -20 -20 -20 -20 -20 -20 -20 -20 -20 -20 -20 -20 -20 -20 -20 -20 -20 -20 -20 -20 -20 -20 -20 -20 -20
-20 -20 -20 -20 -20 -20 -20 -20 -20 -20 -20 -20 -20 -20 -20 -20 -20 -20 -20 -20 -19 -20 -20 -20 -20 -20 -20 -20 -20 -20 -20 -9 -5 -16 -19 -20 -20 -20 -20 -20 -20 -20 -20 -20
-20 -20 -20 -20 -20 -20 -20 -20 -20 -20 -20 -20 -20 -20 -20 -20 -20 -18 -0 -18 -18 -19 -18 -20 -17 -17 -17 -18 -19 -20 -19 -7 -4 -8 -15 -7 -5 -12 -20 -20 -20 -20 -20 -20
-20 -20 -20 -20 -20 -20 -20 -20 -20 -20 -20 -20 -20 -20 -20 -20 -19 -13 3 -1 -18 -17 -19 -19 -18 -19 -19 -18 -19 -18 -18 -17 -14 -11 -13 -17 -18 -18 -19 -20 -20 -20 -20 -20